Flag for Germany Weather past 2 weeks in Munich, Bavaria, Germany

Now
32 °F

Partly cloudy.


Feels Like: 26 °F
Forecast: 27 / 31 °F
Wind: 7 mph from Southwest

Location: Munich / Franz Josef Strauss Airport

Current Time: Feb 1, 2015 at 5:39:33 AM

Latest Report: Feb 1, 2015 at 5:20 AM


Visibility: N/A

Pressure: 29.21 "Hg

Humidity: 80%

Dew point: 27 °F

Location of MunichLocation

Historic Weather in Munich — Graph

°F

Munich temperature yesterday

Maximum temperature yesterday: 37 °F (at 1:50 PM)
Minimum temperature yesterday: 27 °F (at 2:50 AM)
Average temperature yesterday: 32 °F

Past Weeks' High & Low Weather Summary

 TemperatureHumidityPressure
High39 °F (Jan 29, 1:20 PM)100% (Jan 17, 5:20 AM)30.36 "Hg (Jan 17, 5:20 AM)
Low25 °F (Feb 1, 2:50 AM)65% (Jan 26, 3:20 PM)28.77 "Hg (Jan 30, 2:50 AM)
Average33 °F91%29.82 "Hg
* Reported Jan 17 4:20 AM — Feb 1 4:20 AM, Munich, Weather by CustomWeather, © 2014

Note: Actual official high and low records may vary slightly from our data, if they occured in-between our weather recording intervals... More about our weather records

Advertising

Munich weather history for previous 24 hours

 ConditionsComfort  
Time TempWeatherWind HumidityBarometerVisibility
4:20 AM
Feb 1
32 °FPartly cloudy.2 mph80%29.18 "HgN/A
3:50 AM30 °FPartly cloudy.8 mph86%29.18 "HgN/A
3:20 AM30 °FPassing clouds.5 mph86%29.18 "HgN/A
2:50 AM25 °FPassing clouds.6 mph93%29.18 "HgN/A
2:20 AM27 °FPartly cloudy.6 mph86%29.18 "HgN/A
1:50 AM28 °FClear.5 mph86%29.18 "Hg10 mi
1:20 AM30 °FClear.6 mph80%29.18 "Hg10 mi
12:50 AM32 °FClear.6 mph80%29.18 "Hg10 mi
12:20 AM32 °FPassing clouds.9 mph80%29.18 "HgN/A
11:50 PM
Jan 31
32 °FPartly cloudy.7 mph80%29.18 "HgN/A
11:20 PM32 °FMostly cloudy.5 mph80%29.18 "HgN/A
10:50 PM32 °FPassing clouds.2 mph80%29.18 "HgN/A
10:20 PM30 °FPassing clouds.3 mph80%29.15 "HgN/A
9:50 PM28 °FPartly cloudy.2 mph86%29.15 "HgN/A
9:20 PM27 °FPartly cloudy.5 mph86%29.15 "HgN/A
8:50 PM30 °FPartly cloudy.2 mph80%29.15 "HgN/A
8:20 PM30 °FPartly cloudy.5 mph80%29.15 "HgN/A
7:50 PM28 °FPassing clouds.6 mph80%29.15 "HgN/A
7:20 PM28 °FClear.7 mph80%29.15 "Hg10 mi
6:50 PM28 °FPassing clouds.3 mph86%29.12 "HgN/A
6:20 PM30 °FClear.3 mph80%29.12 "Hg10 mi
5:50 PM32 °FClear.2 mph75%29.12 "Hg10 mi
5:20 PM32 °FClear.2 mph75%29.09 "Hg10 mi
4:20 PM34 °FSunny.3 mph70%29.09 "Hg10 mi
3:50 PM36 °FPartly sunny.5 mph70%29.09 "HgN/A
3:20 PM37 °FBroken clouds.7 mph65%29.09 "HgN/A
2:50 PM37 °FBroken clouds.8 mph65%29.09 "HgN/A
2:20 PM37 °FBroken clouds.8 mph65%29.09 "HgN/A
1:50 PM37 °FBroken clouds.10 mph65%29.06 "HgN/A
1:20 PM36 °FBroken clouds.15 mph70%29.06 "HgN/A
12:50 PM36 °FScattered clouds.16 mph70%29.06 "HgN/A
12:20 PM36 °FScattered clouds.18 mph70%29.06 "HgN/A
11:50 AM36 °FScattered clouds.18 mph70%29.06 "HgN/A
11:20 AM36 °FScattered clouds.18 mph70%29.06 "HgN/A
10:50 AM34 °FScattered clouds.17 mph75%29.06 "HgN/A
10:20 AM34 °FScattered clouds.18 mph75%29.06 "HgN/A
9:50 AM32 °FScattered clouds.16 mph80%29.06 "HgN/A
9:20 AM32 °FSunny.14 mph87%29.03 "Hg10 mi
8:50 AM32 °FPartly sunny.13 mph87%29.03 "HgN/A
8:20 AM32 °FPartly sunny.12 mph87%29.03 "HgN/A
7:50 AM32 °FPartly sunny.8 mph87%29.03 "HgN/A
7:20 AM32 °FSnow flurries. Passing clouds.8 mph87%29.03 "Hg5 mi
6:50 AM32 °FSnow flurries. Passing clouds.8 mph87%29.00 "HgN/A
6:20 AM30 °FPassing clouds.6 mph93%29.00 "HgN/A
5:50 AM30 °FPartly cloudy.5 mph93%29.00 "HgN/A
5:20 AM28 °FPassing clouds.7 mph100%29.00 "HgN/A
Weather by CustomWeather, © 2014

See weather overviewHow to use our weather pages